When you browse on this site, cookies collect data to enhance your experience and personalize the content and advertising you see.
Visit our Privacy Policy to learn more. By continuing to use the site, you agree to this use of cookies and data.
  • In Portugal
  • List of Countries
  • For 7 days
  • Water Temperature
  • Satellite Maps
  • Weather Map
  • Weather Widgets
  • user-avatar
    Login

    Hourly Weather Beloozernyy

    Today, 16 January, Wednesday

    Time Temperature Precipitation Wind Pressure Humidity
    00:00 -10°C° 0 mm 2 mps 730 mmHg 95%
    01:00 -9°C° 0 mm 2 mps 730 mmHg 95%
    02:00 -8°C° 0 mm 2 mps 730 mmHg 96%
    03:00 -9°C° 0 mm 2 mps 730 mmHg 95%
    04:00 -9°C° 0 mm 2 mps 731 mmHg 95%
    05:00 -9°C° 0 mm 2 mps 731 mmHg 95%
    06:00 -9°C° 0 mm 2 mps 731 mmHg 95%
    07:00 -9°C° 0 mm 2 mps 732 mmHg 95%
    08:00 -9°C° 0 mm 3 mps 732 mmHg 96%
    09:00 -8°C° 0 mm 3 mps 733 mmHg 95%
    10:00 -7°C° 0 mm 3 mps 733 mmHg 93%
    11:00 -7°C° 0 mm 4 mps 734 mmHg 92%
    12:00 -7°C° 0 mm 4 mps 735 mmHg 91%
    13:00 -7°C° 0 mm 4 mps 735 mmHg 90%
    14:00 -5°C° 0 mm 4 mps 736 mmHg 89%
    15:00 -7°C° 0 mm 3 mps 736 mmHg 91%
    16:00 -8°C° 0 mm 3 mps 737 mmHg 93%
    17:00 -9°C° 0 mm 3 mps 737 mmHg 95%
    18:00 -10°C° 0 mm 3 mps 737 mmHg 95%
    19:00 -12°C° 0 mm 3 mps 738 mmHg 95%
    20:00 -12°C° 0 mm 2 mps 738 mmHg 95%
    21:00 -12°C° 0 mm 3 mps 738 mmHg 94%
    22:00 -12°C° 0 mm 3 mps 738 mmHg 93%
    23:00 -12°C° 0 mm 3 mps 738 mmHg 93%

    Tomorrow, 17 January, Thursday

    Time Temperature Precipitation Wind Pressure Humidity
    00:00 -11°C° 0.1 mm 4 mps 737 mmHg 92%
    01:00 -10°C° 0.1 mm 4 mps 737 mmHg 92%
    02:00 -10°C° 0.1 mm 5 mps 736 mmHg 92%
    03:00 -7°C° 0.1 mm 5 mps 736 mmHg 91%
    04:00 -6°C° 0.1 mm 6 mps 735 mmHg 91%
    05:00 -4°C° 0.1 mm 6 mps 734 mmHg 91%
    06:00 -3°C° 0.3 mm 6 mps 734 mmHg 92%
    07:00 -2°C° 0.3 mm 6 mps 734 mmHg 92%
    08:00 -2°C° 0.3 mm 6 mps 733 mmHg 92%
    09:00 -1°C° 0.3 mm 6 mps 733 mmHg 93%
    10:00 -1°C° 0.3 mm 7 mps 732 mmHg 93%
    11:00 -1°C° 0.3 mm 7 mps 732 mmHg 93%
    12:00 -1°C° 0.3 mm 7 mps 731 mmHg 92%
    13:00 -1°C° 0.3 mm 7 mps 731 mmHg 91%
    14:00 -2°C° 0.3 mm 8 mps 730 mmHg 90%
    15:00 -2°C° 0.1 mm 8 mps 730 mmHg 88%
    16:00 -2°C° 0.1 mm 7 mps 730 mmHg 87%
    17:00 -2°C° 0.1 mm 7 mps 731 mmHg 86%
    18:00 -2°C° 0.1 mm 7 mps 731 mmHg 86%
    19:00 -1°C° 0.1 mm 7 mps 731 mmHg 86%
    20:00 -1°C° 0.1 mm 6 mps 731 mmHg 86%
    21:00 -1°C° 0 mm 7 mps 731 mmHg 86%
    22:00 -1°C° 0 mm 7 mps 732 mmHg 86%
    23:00 -1°C° 0 mm 7 mps 732 mmHg 85%

    Day after tomorrow, 18 January, Friday

    Time Temperature Precipitation Wind Pressure Humidity
    00:00 -2°C° 0 mm 7 mps 732 mmHg 85%
    01:00 -2°C° 0 mm 6 mps 732 mmHg 85%
    02:00 -2°C° 0 mm 6 mps 732 mmHg 85%
    03:00 -2°C° 0 mm 6 mps 732 mmHg 87%
    04:00 -2°C° 0 mm 6 mps 732 mmHg 88%
    05:00 -1°C° 0 mm 5 mps 732 mmHg 89%
    06:00 -1°C° 0.4 mm 5 mps 732 mmHg 90%
    07:00 -1°C° 0.4 mm 5 mps 732 mmHg 90%
    08:00 -1°C° 0.4 mm 5 mps 732 mmHg 91%
    09:00 -1°C° 0.4 mm 5 mps 732 mmHg 88%
    10:00 -3°C° 0.4 mm 6 mps 732 mmHg 85%
    11:00 -3°C° 0.4 mm 7 mps 733 mmHg 82%
    12:00 -4°C° 0.1 mm 6 mps 733 mmHg 84%
    13:00 -4°C° 0.1 mm 5 mps 733 mmHg 86%
    14:00 -4°C° 0.1 mm 5 mps 733 mmHg 88%
    15:00 -5°C° 0.4 mm 5 mps 734 mmHg 88%
    16:00 -6°C° 0.4 mm 5 mps 735 mmHg 88%
    17:00 -8°C° 0.4 mm 6 mps 736 mmHg 88%
    18:00 -7°C° 0 mm 5 mps 737 mmHg 87%
    19:00 -8°C° 0 mm 5 mps 738 mmHg 86%
    20:00 -9°C° 0 mm 4 mps 739 mmHg 85%
    21:00 -9°C° 0 mm 4 mps 740 mmHg 87%
    22:00 -9°C° 0 mm 4 mps 740 mmHg 89%
    23:00 -9°C° 0 mm 4 mps 741 mmHg 90%

    19 January, Saturday

    Time Temperature Precipitation Wind Pressure Humidity
    00:00 -9°C° 0 mm 4 mps 742 mmHg 90%
    01:00 -10°C° 0 mm 5 mps 742 mmHg 89%
    02:00 -10°C° 0 mm 5 mps 743 mmHg 88%
    03:00 -10°C° 0 mm 5 mps 743 mmHg 88%
    04:00 -10°C° 0 mm 5 mps 743 mmHg 87%
    05:00 -10°C° 0 mm 5 mps 743 mmHg 87%
    06:00 -10°C° 0 mm 5 mps 744 mmHg 86%
    07:00 -10°C° 0 mm 5 mps 744 mmHg 85%
    08:00 -10°C° 0 mm 5 mps 745 mmHg 85%
    09:00 -10°C° 0 mm 5 mps 745 mmHg 84%
    10:00 -8°C° 0 mm 5 mps 746 mmHg 84%
    11:00 -7°C° 0 mm 5 mps 746 mmHg 84%
    12:00 -7°C° 0 mm 5 mps 746 mmHg 84%
    13:00 -7°C° 0 mm 4 mps 746 mmHg 85%
    14:00 -5°C° 0 mm 4 mps 746 mmHg 86%
    15:00 -7°C° 0 mm 4 mps 746 mmHg 87%
    16:00 -7°C° 0 mm 4 mps 746 mmHg 88%
    17:00 -7°C° 0 mm 4 mps 746 mmHg 90%
    18:00 -7°C° 0 mm 4 mps 746 mmHg 90%
    19:00 -6°C° 0 mm 3 mps 746 mmHg 90%
    20:00 -6°C° 0 mm 3 mps 746 mmHg 91%
    21:00 -7°C° 0 mm 3 mps 746 mmHg 92%
    22:00 -7°C° 0 mm 3 mps 746 mmHg 93%
    23:00 -7°C° 0 mm 3 mps 746 mmHg 94%

    20 January, Sunday

    Time Temperature Precipitation Wind Pressure Humidity
    00:00 -7°C° 0.4 mm 3 mps 746 mmHg 94%
    01:00 -7°C° 0.4 mm 4 mps 746 mmHg 94%
    02:00 -5°C° 0.4 mm 4 mps 746 mmHg 94%
    03:00 -5°C° 0.3 mm 4 mps 746 mmHg 93%
    04:00 -5°C° 0.3 mm 4 mps 746 mmHg 92%
    05:00 -5°C° 0.3 mm 3 mps 746 mmHg 91%
    06:00 -6°C° 0 mm 3 mps 746 mmHg 92%
    07:00 -7°C° 0 mm 3 mps 746 mmHg 92%
    08:00 -8°C° 0 mm 3 mps 746 mmHg 93%
    09:00 -7°C° 0 mm 3 mps 746 mmHg 93%
    10:00 -7°C° 0 mm 3 mps 746 mmHg 92%
    11:00 -7°C° 0 mm 3 mps 747 mmHg 92%
    12:00 -7°C° 0 mm 3 mps 746 mmHg 92%
    13:00 -6°C° 0 mm 3 mps 746 mmHg 92%
    14:00 -5°C° 0 mm 2 mps 746 mmHg 92%
    15:00 -6°C° 0 mm 2 mps 746 mmHg 93%
    16:00 -7°C° 0 mm 2 mps 746 mmHg 95%
    17:00 -8°C° 0 mm 2 mps 745 mmHg 96%
    18:00 -8°C° 0.2 mm 2 mps 745 mmHg 96%
    19:00 -8°C° 0.2 mm 3 mps 745 mmHg 95%
    20:00 -8°C° 0.2 mm 3 mps 745 mmHg 95%
    21:00 -7°C° 0.1 mm 2 mps 745 mmHg 95%
    22:00 -7°C° 0.1 mm 2 mps 746 mmHg 95%
    23:00 -7°C° 0.1 mm 2 mps 746 mmHg 95%

    21 January, Monday

    Time Temperature Precipitation Wind Pressure Humidity
    00:00 -7°C° 0 mm 2 mps 746 mmHg 95%
    01:00 -7°C° 0 mm 2 mps 746 mmHg 95%
    02:00 -8°C° 0 mm 2 mps 746 mmHg 95%
    03:00 -9°C° 0.1 mm 3 mps 747 mmHg 94%
    04:00 -10°C° 0.1 mm 4 mps 747 mmHg 93%
    05:00 -11°C° 0.1 mm 5 mps 747 mmHg 92%
    06:00 -12°C° 0.1 mm 5 mps 748 mmHg 91%
    07:00 -13°C° 0.1 mm 5 mps 748 mmHg 91%
    08:00 -14°C° 0.1 mm 5 mps 749 mmHg 91%
    09:00 -14°C° 0 mm 5 mps 749 mmHg 90%
    10:00 -14°C° 0 mm 4 mps 750 mmHg 89%
    11:00 -14°C° 0 mm 4 mps 751 mmHg 88%
    12:00 -12°C° 0 mm 4 mps 751 mmHg 87%
    13:00 -12°C° 0 mm 4 mps 751 mmHg 86%
    14:00 -12°C° 0 mm 4 mps 751 mmHg 86%
    15:00 -13°C° 0 mm 3 mps 752 mmHg 88%
    16:00 -13°C° 0 mm 3 mps 752 mmHg 90%
    17:00 -14°C° 0 mm 3 mps 752 mmHg 92%
    18:00 -13°C° 0 mm 2 mps 753 mmHg 93%
    19:00 -14°C° 0 mm 2 mps 753 mmHg 94%
    20:00 -14°C° 0 mm 2 mps 753 mmHg 95%
    21:00 -15°C° 0 mm 2 mps 753 mmHg 95%
    22:00 -15°C° 0 mm 2 mps 753 mmHg 95%
    23:00 -16°C° 0 mm 2 mps 754 mmHg 95%
    Show more